Retour au catalogue

STARLINK-33715

ActifCommunicationsVLEO
NORAD 63441·PAYLOAD·🇺🇸 United States

Lancé Apr 4, 2025 depuis Vandenberg Space Force Base

Loading…

Prochains Passages (prochaines 24 heures)

TLE

FraisSource: CelesTrak SupGP

Époque: Sep 15, 2026, 03:24 UTC

1 63441C 25069J   26258.14215278  .00066559  00000+0  19660-2 0  2585
2 63441  53.1599 333.1147 0001340  86.5093 230.4741 15.34366224    11

Suivez STARLINK-33715 en temps réel avec AllMySat

Download on the App Store